Regional Weather Roundup
Issued by NWS

Home | Current Version | Previous Version | Graphics & Text | Print | Product List | Glossary On
Versions: 1 2 3 4 5 6 7 8 9 10 11 12 13 14 15 16 17 18 19 20 21 22 23 24 25 26 27 28 29 30 31 32 33 34 35 36 37 38 39 40 41 42 43 44 45 46 47 48 49 50
000
ASUS45 KCYS 020210
RWRWY

WYOMING REGIONAL WEATHER ROUNDUP
NATIONAL WEATHER SERVICE CHEYENNE WY
800 PM MDT TUE SEP 01 2015

NOTE:  "FAIR" INDICATES FEW OR NO CLOUDS BELOW 12,000 FEET
WITH NO SIGNIFICANT WEATHER AND/OR OBSTRUCTIONS TO VISIBILITY.

WYZ001-020300-
YELLOWSTONE NATIONAL PARK

CITY           SKY/WX    TMP DP  RH WIND       PRES   REMARKS
LK YELLOWSTONE   N/A     63  25  23 VRB3      30.17R
W YELLOWSTONE  NOT AVBL

$$
WYZ002>013-054>058-071-098>099-020300-
NORTHERN WYOMING

CITY           SKY/WX    TMP DP  RH WIND       PRES   REMARKS
JACKSON        PTCLDY    66  39  37 SW10      30.05S
CODY           FAIR      81  30  16 S7        29.90S
GREYBULL       FAIR      89  30  12 CALM      29.78R
WORLAND        FAIR      80  33  18 S7        29.80R
SHERIDAN       FAIR      69  47  45 S5        29.82S
BUFFALO        FAIR      73  34  23 SW7       29.92R
GILLETTE       FAIR      69  38  32 SE3       29.88S
HULETT         FAIR      70  41  35 E8        29.91S
NEWCASTLE        N/A     79  28  15 MISG      29.90S

$$
WYZ014>020-022>026-101>103-020300-
CENTRAL WYOMING

CITY           SKY/WX    TMP DP  RH WIND       PRES   REMARKS
BIG PINEY      FAIR      67  32  27 W10       30.12S
PINEDALE       FAIR      70  30  23 CALM      30.13S
DUBOIS         FAIR      64  28  25 W6        30.10S
LANDER         FAIR      76  39  26 SW31G48   29.97R
RIVERTON       FAIR      77  40  26 SW17G28   29.97R
CASPER         MOCLDY    80  36  20 SW31G47   29.99R
DOUGLAS        FAIR      76  33  21 SW8       29.96R

$$
WYZ021-027>030-104>119-020300-
SOUTHERN WYOMING

CITY           SKY/WX    TMP DP  RH WIND       PRES   REMARKS
EVANSTON       FAIR      71  34  25 SW9       30.14R
KEMMERER       FAIR     N/A N/A N/A SW7       30.15S
FORT BRIDGER   PTCLDY    72  39  30 S6        30.17R
ROCK SPRINGS   FAIR      66  45  46 SE6       30.14R
DIXON          CLOUDY    69  40  34 NE9       30.23R
RAWLINS        FAIR      69  40  34 S21G28    30.19R
SARATOGA       CLOUDY    64  37  36 SW21G29   30.23R
LARAMIE        FAIR      63  42  46 NW9       30.23R
CHEYENNE       MOCLDY    76  37  24 W13       30.11R
TORRINGTON     FAIR      79  46  31 SE8       29.91R
PINE BLUFFS    FAIR      68  36  30 S9        30.03R

$$



USA.gov is the U.S. government's official web portal to all federal, state and local government web resources and services.